Overview Statistics Trail Chart Weather Telemetry Raw packets
 

This is the latest recevied weather packets stored in our database for station/object HS2LXA-WX. If no packets are shown the sender has not sent any weather packets the latest 10 day(s).

<< 1 2 3 4 5 >>
Time Temp. Humidity Pressure Rain* Wind** Luminosity Snow
1788666450 35° C 74% 1011.7 hPa 0 mm - - -
1788665298 34.44° C 76% 1012 hPa 0 mm - - -
1788663829 33.89° C 77% 1012.2 hPa 0 mm - - -
1788662933 33.89° C 76% 1012.3 hPa 0 mm - - -
1788661836 33.33° C 78% 1012.3 hPa 0 mm - - -
1788661236 33.33° C 79% 1012.4 hPa 0 mm - - -
1788660635 33.33° C 79% 1012.3 hPa 0 mm - - -
1788660036 33.33° C 80% 1012.3 hPa 0 mm - - -
1788658614 32.22° C 82% 1012.2 hPa 0 mm - - -
1788657784 31.67° C 81% 1011.9 hPa 0 mm - - -
1788657184 32.22° C 80% 1011.8 hPa 0 mm - - -
1788656563 32.78° C 82% 1011.5 hPa 0 mm - - -
1788655938 32.78° C 82% 1011.1 hPa 0 mm - - -
1788654822 32.22° C 82% 1011 hPa 0 mm - - -
1788654206 32.22° C 83% 1010.7 hPa 0 mm - - -
1788653606 32.22° C 83% 1010.5 hPa 0 mm - - -
1788652505 31.67° C 84% 1010.1 hPa 0 mm - - -
1788651784 31.67° C 84% 1010.2 hPa 0 mm - - -
1788651184 31.67° C 84% 1010.1 hPa 0 mm - - -
1788650584 31.67° C 85% 1010.1 hPa 0 mm - - -
1788649983 31.67° C 83% 1010.1 hPa 0 mm - - -
1788648866 31.67° C 84% 1010.2 hPa 0 mm - - -
1788648266 31.67° C 84% 1010.2 hPa 0 mm - - -
1788647399 31.67° C 84% 1010 hPa 0 mm - - -
1788646798 31.67° C 83% 1009.9 hPa 0 mm - - -

* Rain latest hour (hover to see other rain measurements)
** Current wind speed in m/s (hover to see current wind gust speed)